Voltar ao catálogo

DELTA 1 DEB

AtivoSSO
NORAD 12266·DEBRIS·🇺🇸 United States

Lançado Mar 5, 1978 de Vandenberg Space Force Base

Loading…

Próximas Passagens (próximas 24 horas)

TLE

AtualizadoSource: Space-Track

Época: Sep 14, 2026, 07:51 UTC

1 12266U 78026DK  26257.32714891  .00001542  00000-0  10045-2 0  9991
2 12266  98.7733  41.8448 0143553 154.4130 206.4230 13.98898685296362

Acompanhe DELTA 1 DEB em tempo real com AllMySat

Download on the App Store